FENGYUN 1C DEB, 31191

Orbit data source: Space-Track

FENGYUN 1C DEB, 31191 is space debris in SSO originally from a launch on Mon, 10 May 1999 UTC launched from the Taiyaun Space Center, China (TSC). Fengyun 1C debris stems from the Chinese weather satellite Fengyun-1C, which was intentionally destroyed by a Chinese anti-satellite missile in 2007. This event dramatically increased the amount of space debris, with thousands of trackable fragments posing hazards to satellites and human spaceflight. The Fengyun 1C debris cloud has become a focal point in discussions about space sustainability and the need for international regulations to prevent the creation of new debris.

Loading next visibility...
Identifier
31191, 1999-025BJV
Orbit
SSO
Country
Flag of CNCN / PRC
Related business
Manufacturer
Unknown
Mission
Spacecraft
Bus & Motor
Unknown
Mass
Unknown
Launch date (UTC)
1999-05-10 (27 years ago)
Launch vehicle
Unknown
Launch site
Taiyaun Space Center, China (TSC)
Object type
Payload
Rocket body
Debris
Shape & HBR
Unknown shape, 0.1 m
Radar Cross Section
Small (<0.1 m²)

Expand to show TLE details & history
Last TLE update: 2 days ago

TLE from 2 days ago
0 FENGYUN 1C DEB
1 31191U 99025BJV 26119.20003451  .00000885  00000-0  27509-3 0  9991
2 31191  98.7762  28.7693 0092775 145.3212 215.4073 14.41153379999927
Epoch: 2026-04-29T04:48Z
TLE epoch observation values (Epoch: 2026-04-29T04:48:02.981Z)
Latitude
0.00002°
Longitude
99.59246°
Altitude
811.783 km
Speed
7.419 km/s
True Right ascension
01h 55m 04s
True Declination
0° 00' 00"
Sunlit
Object was in daylight at epoch
Visualization orbit readout
Latitude
Unknown
Longitude
Unknown
Altitude
Unknown
Speed
Unknown
Apparent Right ascension
Unknown
Apparent Declination
Unknown
Sunlit
N/A
Visualization observer readout
Local Sidereal Time
02:39:41
Azimuth
Unknown
Elevation
Unknown
Doppler factor
Unknown
Orbital elements
Apogee altitude
817.972 km
Perigee altitude
685.675 km
Semi-major axis
7,129.96 km
Eccentricity
0.00928
Inclination
98.7762°
RAAN
28.7693°
Arg. of periapsis
145.3212°
True anomaly
214.79712°
Mean anomaly
215.4073°
Eccentric anomaly
215.10164°
Mean motion
3.60506 °/min
Orbital period
99.86 mins
BSTAR
0.00027509
Loading maneuver chart data...
Computing Atmospheric mass density...

Documentation

Showing up to 5 results
|